{"data":{"norad_id":62900,"intl_designator":"2025-025A","name":"LEGION 5","alt_names":[],"object_type":"PAYLOAD","status":"ACTIVE","operator":null,"country":"US","launch_date":"2025-02-04","launch_site_code":"AFETR","launch_vehicle":null,"mission":null,"orbit_class":"UNKNOWN","rcs_meters":null,"size_class":null,"mass_kg":null,"dimensions":null,"purposes":[],"wikipedia_slug":null,"has_3d_model":false,"image_url":null,"decayed_at":null,"tle_current":{"epoch":"2026-05-25T04:46:54.590016Z","epoch_age_seconds":53984,"freshness":"FRESH","line1":"1 62900U 25025A   26145.19924294  .00003813  00000+0  20996-3 0  9992","line2":"2 62900  45.0021  64.6608 0007932   7.5217 352.5780 15.15760499 71009","mean_motion":15.15760499,"eccentricity":0.0007932,"inclination_deg":45.0021,"raan_deg":64.6608,"arg_perigee_deg":7.5217,"mean_anomaly_deg":352.578,"bstar":0.00020996,"rev_number":7100,"period_min":95.001815982803,"perigee_km":513.20016764464,"apogee_km":524.14126340454,"semimajor_km":6896.8077155246,"source":"CELESTRAK","updated_at":"2026-05-25T13:38:03.353416Z"}}}